| time (UTC) | temp C | wind direction | speed KPH | gust KPH | rain 1hr cm | rain 24hr cm | rain mn cm | humidity % | barometer mb |
| 20260510104526 | 18 | 63 | 1.6 | 3.2 | 0.00 | 2.01 | 0.00 | 96 | 1015.1 |
| 20260510103028 | 18 | 9 | 1.6 | 3.2 | 0.00 | 2.01 | 0.00 | 96 | 1015.1 |
| 20260510101529 | 18 | 57 | 1.6 | 3.2 | 0.00 | 2.01 | 0.00 | 95 | 1014.9 |
| 20260510100025 | 18 | 32 | 1.6 | 1.6 | 0.00 | 2.01 | 0.00 | 95 | 1014.7 |
| 20260510094527 | 18 | 107 | 0.0 | 1.6 | 0.00 | 2.01 | 0.00 | 95 | 1014.7 |
| 20260510093029 | 18 | 13 | 0.0 | 0.0 | 0.00 | 2.01 | 0.00 | 94 | 1014.4 |
| 20260510091534 | 18 | 217 | 0.0 | 1.6 | 0.00 | 2.01 | 0.00 | 94 | 1014.8 |
| 20260510090025 | 18 | 196 | 0.0 | 1.6 | 0.00 | 2.01 | 0.00 | 94 | 1014.8 |
| 20260510084523 | 18 | 118 | 1.6 | 4.8 | 0.00 | 2.01 | 0.00 | 94 | 1014.7 |
| 20260510083026 | 18 | 160 | 1.6 | 3.2 | 0.00 | 2.01 | 0.00 | 94 | 1014.7 |
| 20260510081526 | 18 | 174 | 0.0 | 3.2 | 0.00 | 2.01 | 0.00 | 93 | 1014.4 |
| 20260510080016 | 18 | 80 | 0.0 | 1.6 | 0.00 | 2.01 | 0.00 | 93 | 1014.2 |
| 20260510074522 | 18 | 160 | 0.0 | 1.6 | 0.00 | 2.01 | 0.00 | 94 | 1014.2 |
| 20260510073025 | 18 | 104 | 0.0 | 1.6 | 0.00 | 2.01 | 0.00 | 94 | 1014.0 |
| 20260510071508 | 18 | 84 | 1.6 | 3.2 | 0.00 | 2.01 | 0.00 | 95 | 1014.0 |
| 20260510070016 | 18 | 209 | 1.6 | 4.8 | 0.00 | 2.01 | 0.00 | 95 | 1014.0 |
| 20260510064530 | 18 | 168 | 0.0 | 3.2 | 0.00 | 2.01 | 0.00 | 94 | 1014.0 |
| 20260510063024 | 18 | 139 | 0.0 | 4.8 | 0.00 | 2.01 | 0.00 | 94 | 1013.9 |
| 20260510061528 | 18 | 157 | 1.6 | 4.8 | 0.00 | 2.01 | 0.00 | 95 | 1013.8 |
| 20260510060012 | 18 | 74 | 0.0 | 1.6 | 0.00 | 2.01 | 0.00 | 95 | 1013.6 |
| 20260510054515 | 18 | 33 | 1.6 | 1.6 | 0.00 | 2.01 | 0.00 | 96 | 1013.8 |
| 20260510053025 | 18 | 25 | 0.0 | 4.8 | 0.00 | 2.01 | 0.00 | 95 | 1013.8 |
| 20260510051526 | 18 | 72 | 0.0 | 3.2 | 0.00 | 2.01 | 0.00 | 94 | 1013.8 |
| 20260510050027 | 18 | 107 | 1.6 | 3.2 | 0.00 | 2.01 | 0.00 | 93 | 1013.9 |
| 20260510044516 | 18 | 113 | 3.2 | 4.8 | 0.00 | 2.01 | 2.01 | 94 | 1014.2 |
| 20260510043020 | 18 | 105 | 3.2 | 3.2 | 0.00 | 2.01 | 2.01 | 95 | 1014.2 |
| 20260510041525 | 18 | 65 | 0.0 | 3.2 | 0.00 | 2.01 | 2.01 | 94 | 1014.3 |
| 20260510040026 | 18 | 57 | 0.0 | 1.6 | 0.00 | 2.01 | 2.01 | 94 | 1014.5 |
| 20260510034529 | 18 | 153 | 0.0 | 3.2 | 0.00 | 2.01 | 2.01 | 93 | 1014.9 |
| 20260510033022 | 18 | 203 | 0.0 | 3.2 | 0.00 | 2.01 | 2.01 | 94 | 1014.4 |
| 20260510031520 | 18 | 94 | 3.2 | 4.8 | 0.00 | 2.01 | 2.01 | 95 | 1014.1 |
| 20260510030027 | 18 | 243 | 0.0 | 3.2 | 0.00 | 2.01 | 2.01 | 94 | 1014.9 |
| 20260510024529 | 18 | 72 | 1.6 | 4.8 | 0.00 | 2.01 | 2.01 | 92 | 1014.3 |
| 20260510023032 | 19 | 119 | 0.0 | 3.2 | 0.00 | 2.01 | 2.01 | 92 | 1014.5 |
| 20260510021525 | 18 | 214 | 0.0 | 3.2 | 0.00 | 2.01 | 2.01 | 93 | 1014.6 |
| 20260510020024 | 18 | 177 | 0.0 | 3.2 | 0.00 | 2.01 | 2.01 | 93 | 1014.3 |
| 20260510014526 | 18 | 308 | 1.6 | 3.2 | 0.00 | 2.01 | 2.01 | 93 | 1014.1 |
| 20260510013029 | 19 | 39 | 3.2 | 3.2 | 0.00 | 2.01 | 2.01 | 91 | 1014.1 |
| 20260510011528 | 19 | 161 | 0.0 | 4.8 | 0.00 | 2.01 | 2.01 | 90 | 1013.9 |
| 20260510010020 | 19 | 272 | 0.0 | 0.0 | 0.00 | 2.01 | 2.01 | 91 | 1013.9 |
| 20260510004524 | 19 | 299 | 3.2 | 4.8 | 0.00 | 2.01 | 2.01 | 91 | 1013.9 |
| 20260510003026 | 19 | 301 | 3.2 | 6.4 | 0.00 | 2.01 | 2.01 | 91 | 1013.7 |
| 20260510001528 | 20 | 217 | 1.6 | 4.8 | 0.00 | 2.01 | 2.01 | 88 | 1013.4 |
| 20260510000016 | 20 | 210 | 3.2 | 4.8 | 0.00 | 2.01 | 2.01 | 88 | 1013.2 |
| 20260509234536 | 20 | 153 | 1.6 | 4.8 | 0.00 | 2.01 | 2.01 | 89 | 1013.0 |
| 20260509233026 | 20 | 221 | 1.6 | 4.8 | 0.00 | 2.01 | 2.01 | 89 | 1013.4 |
| 20260509231528 | 20 | 179 | 3.2 | 4.8 | 0.00 | 2.01 | 2.01 | 89 | 1013.1 |
| 20260509230031 | 20 | 144 | 1.6 | 4.8 | 0.00 | 2.01 | 2.01 | 87 | 1012.9 |
| 20260509224530 | 21 | 176 | 1.6 | 3.2 | 0.00 | 2.01 | 2.01 | 85 | 1013.1 |
| 20260509223004 | 20 | 214 | 0.0 | 3.2 | 0.00 | 2.01 | 2.01 | 86 | 1013.0 |
| 20260509221507 | 20 | 205 | 0.0 | 4.8 | 0.00 | 2.01 | 2.01 | 87 | 1012.8 |
| 20260509220011 | 20 | 248 | 0.0 | 3.2 | 0.00 | 2.06 | 2.01 | 88 | 1012.4 |
| 20260509214519 | 20 | 124 | 1.6 | 4.8 | 0.00 | 2.06 | 2.01 | 89 | 1012.3 |
| 20260509213023 | 20 | 208 | 1.6 | 3.2 | 0.00 | 2.08 | 2.01 | 88 | 1012.2 |
| 20260509211508 | 20 | 231 | 1.6 | 4.8 | 0.00 | 2.11 | 2.01 | 88 | 1012.4 |
| 20260509210008 | 20 | 188 | 0.0 | 4.8 | 0.00 | 2.18 | 2.01 | 87 | 1012.3 |
| 20260509204513 | 20 | 190 | 3.2 | 6.4 | 0.00 | 2.36 | 2.01 | 89 | 1012.8 |
| 20260509203018 | 19 | 196 | 4.8 | 11.3 | 0.00 | 2.49 | 2.01 | 89 | 1012.8 |
| 20260509201524 | 19 | 201 | 4.8 | 9.7 | 0.00 | 2.64 | 2.01 | 89 | 1012.8 |
| 20260509200007 | 20 | 206 | 3.2 | 11.3 | 0.00 | 2.74 | 2.01 | 90 | 1012.7 |
| 20260509194510 | 20 | 233 | 3.2 | 9.7 | 0.00 | 2.84 | 2.01 | 88 | 1012.7 |
| 20260509193018 | 20 | 231 | 4.8 | 8.0 | 0.00 | 2.92 | 2.01 | 87 | 1012.9 |
| 20260509191523 | 20 | 269 | 6.4 | 11.3 | 0.00 | 2.97 | 2.01 | 88 | 1013.0 |
| 20260509190029 | 20 | 252 | 3.2 | 11.3 | 0.00 | 3.05 | 2.01 | 89 | 1012.8 |
| 20260509184518 | 19 | 233 | 3.2 | 11.3 | 0.00 | 3.07 | 2.01 | 90 | 1013.1 |
| 20260509183013 | 19 | 131 | 3.2 | 12.9 | 0.00 | 3.12 | 2.01 | 90 | 1013.0 |
| 20260509181517 | 20 | 163 | 3.2 | 11.3 | 0.00 | 3.17 | 2.01 | 90 | 1012.8 |
| 20260509180027 | 20 | 207 | 4.8 | 6.4 | 0.00 | 3.20 | 2.01 | 88 | 1012.6 |
| 20260509174507 | 19 | 298 | 1.6 | 4.8 | 0.00 | 3.23 | 2.01 | 90 | 1012.6 |
| 20260509173015 | 19 | 222 | 3.2 | 4.8 | 0.00 | 3.33 | 2.01 | 91 | 1013.0 |
| 20260509171518 | 19 | 220 | 0.0 | 3.2 | 0.00 | 3.38 | 2.01 | 90 | 1013.0 |
| 20260509170039 | 19 | 191 | 1.6 | 4.8 | 0.00 | 3.45 | 2.01 | 91 | 1013.5 |
| 20260509164527 | 19 | 83 | 3.2 | 6.4 | 0.00 | 3.51 | 2.01 | 92 | 1013.8 |
| 20260509163014 | 19 | 143 | 0.0 | 4.8 | 0.00 | 3.56 | 2.01 | 92 | 1014.2 |
| 20260509161513 | 18 | 290 | 1.6 | 1.6 | 0.00 | 3.61 | 2.01 | 92 | 1014.0 |
| 20260509160020 | 18 | 221 | 0.0 | 3.2 | 0.00 | 3.66 | 2.01 | 92 | 1013.6 |
| 20260509154524 | 18 | 129 | 0.0 | 1.6 | 0.00 | 3.66 | 2.01 | 93 | 1013.3 |
| 20260509153031 | 17 | 282 | 0.0 | 3.2 | 0.00 | 3.66 | 2.01 | 95 | 1013.5 |
| 20260509151510 | 17 | 148 | 0.0 | 0.0 | 0.05 | 3.66 | 2.01 | 94 | 1013.3 |
| 20260509150016 | 17 | 52 | 0.0 | 4.8 | 0.20 | 3.66 | 2.01 | 94 | 1013.0 |
| 20260509144520 | 17 | 119 | 6.4 | 16.1 | 0.33 | 3.66 | 2.01 | 95 | 1013.1 |
| 20260509143025 | 17 | 110 | 8.0 | 19.3 | 0.51 | 3.66 | 2.01 | 96 | 1012.9 |
| 20260509141539 | 17 | 134 | 3.2 | 17.7 | 0.61 | 3.61 | 1.96 | 96 | 1013.1 |
| 20260509140015 | 17 | 181 | 9.7 | 14.5 | 0.56 | 3.45 | 1.80 | 96 | 1012.7 |
| 20260509134529 | 17 | 158 | 4.8 | 12.9 | 0.53 | 3.33 | 1.68 | 96 | 1013.3 |
| 20260509133024 | 17 | 174 | 6.4 | 11.3 | 0.48 | 3.15 | 1.47 | 95 | 1013.6 |
| 20260509131507 | 17 | 146 | 1.6 | 4.8 | 0.46 | 2.97 | 1.32 | 95 | 1014.1 |
| 20260509130012 | 17 | 71 | 4.8 | 8.0 | 0.46 | 2.90 | 1.24 | 96 | 1014.3 |
| 20260509124517 | 17 | 323 | 6.4 | 9.7 | 0.46 | 2.79 | 1.14 | 96 | 1014.3 |
| 20260509123024 | 17 | 255 | 3.2 | 6.4 | 0.94 | 2.64 | 1.02 | 96 | 1015.0 |
| 20260509121528 | 17 | 10 | 3.2 | 9.7 | 0.84 | 2.54 | 0.89 | 96 | 1014.0 |
| 20260509120018 | 17 | 347 | 8.0 | 19.3 | 0.76 | 2.44 | 0.79 | 96 | 1014.1 |
| 20260509114514 | 17 | 4 | 12.9 | 24.1 | 0.69 | 2.34 | 0.69 | 96 | 1014.3 |
| 20260509113028 | 17 | 319 | 14.5 | 24.1 | 0.08 | 1.73 | 0.08 | 97 | 1014.5 |
| 20260509111521 | 17 | 315 | 1.6 | 3.2 | 0.05 | 1.70 | 0.05 | 97 | 1012.2 |
| 20260509110008 | 17 | 134 | 1.6 | 4.8 | 0.03 | 1.68 | 0.03 | 97 | 1011.7 |